Radiation Dose at Monitoring Post of Fukushima Daini Nuclear Power Station
Date,Time,MP-1(microSv/h),MP-2(microSv/h),MP-3(microSv/h),MP-4(microSv/h),MP-5(microSv/h),MP-6(microSv/h),MP-7(microSv/h),Wind Direction,Wind Velocity(m/s),Rain
2018/01/19,00:00,0.332,0.203,0.333,0.312,0.301,0.165,0.099,west,2.9,No
2018/01/19,00:10,0.331,0.202,0.332,0.312,0.301,0.165,0.099,west,1.7,No
2018/01/19,00:20,0.331,0.201,0.331,0.313,0.301,0.165,0.100,west-northwest,2.4,No
2018/01/19,00:30,0.332,0.202,0.332,0.312,0.300,0.166,0.099,northwest,4.2,No
2018/01/19,00:40,0.331,0.203,0.331,0.312,0.302,0.165,0.099,northwest,6.0,No
2018/01/19,00:50,0.332,0.202,0.329,0.312,0.301,0.166,0.099,west-northwest,7.8,No
2018/01/19,01:00,0.330,0.201,0.330,0.312,0.300,0.165,0.100,northwest,9.3,No
2018/01/19,01:10,0.331,0.202,0.332,0.313,0.301,0.166,0.099,west-northwest,8.1,No
2018/01/19,01:20,0.333,0.202,0.331,0.313,0.302,0.166,0.099,west-northwest,9.3,No
2018/01/19,01:30,0.331,0.202,0.332,0.314,0.303,0.166,0.099,northwest,8.5,No
2018/01/19,01:40,0.331,0.201,0.332,0.312,0.300,0.165,0.099,northwest,9.5,No
2018/01/19,01:50,0.333,0.202,0.332,0.314,0.302,0.166,0.099,northwest,8.1,No
2018/01/19,02:00,0.333,0.202,0.333,0.313,0.302,0.166,0.099,northwest,4.8,No
2018/01/19,02:10,0.332,0.202,0.332,0.314,0.302,0.166,0.100,northwest,6.1,No
2018/01/19,02:20,0.332,0.202,0.333,0.313,0.303,0.166,0.100,north-northwest,4.6,No
2018/01/19,02:30,0.333,0.202,0.331,0.312,0.304,0.166,0.099,north,3.6,No
2018/01/19,02:40,0.333,0.202,0.331,0.313,0.303,0.165,0.100,north,2.8,No
2018/01/19,02:50,0.332,0.202,0.332,0.314,0.302,0.165,0.100,north,2.4,No
2018/01/19,03:00,0.332,0.203,0.332,0.313,0.301,0.166,0.099,north-northeast,3.8,No
2018/01/19,03:10,0.333,0.202,0.333,0.312,0.304,0.166,0.099,north-northeast,4.5,No
2018/01/19,03:20,0.333,0.202,0.334,0.313,0.301,0.166,0.100,north-northeast,7.1,No
2018/01/19,03:30,0.333,0.202,0.331,0.314,0.301,0.166,0.099,north-northeast,7.4,No
2018/01/19,03:40,0.331,0.202,0.331,0.312,0.301,0.166,0.099,north,8.1,No
2018/01/19,03:50,0.333,0.202,0.333,0.313,0.301,0.166,0.100,north,8.1,No
2018/01/19,04:00,0.332,0.202,0.332,0.313,0.302,0.165,0.099,north,8.1,No
2018/01/19,04:10,0.331,0.202,0.331,0.313,0.301,0.166,0.099,north,8.9,No
2018/01/19,04:20,0.333,0.202,0.332,0.314,0.302,0.166,0.098,north,10.0,No
2018/01/19,04:30,0.333,0.201,0.333,0.313,0.301,0.166,0.100,north,11.2,No
2018/01/19,04:40,0.334,0.203,0.333,0.313,0.302,0.166,0.098,north,10.4,No
2018/01/19,04:50,0.331,0.203,0.332,0.312,0.303,0.167,0.099,north,9.5,No
2018/01/19,05:00,0.333,0.202,0.331,0.314,0.303,0.166,0.100,north,9.3,No
2018/01/19,05:10,0.334,0.202,0.332,0.314,0.302,0.166,0.099,north,8.4,No
2018/01/19,05:20,0.334,0.203,0.333,0.313,0.300,0.166,0.099,north-northwest,5.0,No
2018/01/19,05:30,0.333,0.203,0.333,0.313,0.302,0.165,0.099,north,5.5,No
2018/01/19,05:40,0.332,0.203,0.331,0.312,0.301,0.165,0.100,north-northwest,4.4,No
2018/01/19,05:50,0.334,0.201,0.332,0.314,0.303,0.166,0.098,north,4.5,No
2018/01/19,06:00,0.333,0.202,0.333,0.312,0.300,0.166,0.099,north,4.0,No
2018/01/19,06:10,0.332,0.202,0.332,0.314,0.301,0.165,0.100,north,5.0,No
2018/01/19,06:20,0.332,0.202,0.332,0.315,0.303,0.165,0.099,north,5.7,No
2018/01/19,06:30,0.334,0.202,0.333,0.315,0.301,0.166,0.099,north-northwest,5.7,No
2018/01/19,06:40,0.333,0.202,0.331,0.313,0.301,0.165,0.100,north,4.9,No
2018/01/19,06:50,0.333,0.203,0.332,0.313,0.301,0.165,0.099,north,4.0,No
2018/01/19,07:00,0.334,0.202,0.330,0.313,0.301,0.166,0.100,north-northwest,5.0,No
2018/01/19,07:10,0.333,0.201,0.332,0.312,0.301,0.166,0.099,north-northwest,5.1,No
2018/01/19,07:20,0.332,0.201,0.332,0.313,0.300,0.166,0.099,north,4.4,No
2018/01/19,07:30,0.334,0.202,0.331,0.314,0.302,0.166,0.099,north,2.3,No
2018/01/19,07:40,0.334,0.201,0.332,0.314,0.302,0.166,0.099,northeast,1.1,No
2018/01/19,07:50,0.332,0.202,0.333,0.313,0.303,0.165,0.100,northeast,2.2,No
2018/01/19,08:00,0.333,0.202,0.332,0.313,0.302,0.165,0.099,north-northeast,2.0,No
2018/01/19,08:10,0.334,0.202,0.332,0.312,0.301,0.166,0.099,north,3.3,No
2018/01/19,08:20,0.332,0.202,0.332,0.314,0.302,0.166,0.100,north,4.8,No
2018/01/19,08:30,0.333,0.202,0.332,0.313,0.299,0.165,0.099,north,4.7,No
2018/01/19,08:40,0.335,0.201,0.332,0.312,0.299,0.165,0.099,north,4.3,No
2018/01/19,08:50,0.333,0.202,0.332,0.314,0.301,0.166,0.099,north,3.9,No
2018/01/19,09:00,0.333,0.201,0.334,0.313,0.302,0.165,0.099,north,3.0,No
2018/01/19,09:10,0.333,0.200,0.332,0.311,0.301,0.166,0.099,north,2.8,No
2018/01/19,09:20,0.333,0.201,0.331,0.313,0.301,0.167,0.099,north-northwest,4.2,No
2018/01/19,09:30,0.331,0.202,0.332,0.315,0.301,0.166,0.099,north-northwest,3.2,No
2018/01/19,09:40,0.333,0.201,0.333,0.312,0.301,0.165,0.099,north-northwest,3.9,No
2018/01/19,09:50,0.333,0.202,0.332,0.312,0.301,0.165,0.100,north-northwest,3.7,No
2018/01/19,10:00,0.332,0.203,0.333,0.314,0.302,0.166,0.100,northwest,5.0,No
2018/01/19,10:10,0.332,0.201,0.333,0.311,0.301,0.166,0.099,north-northwest,5.9,No
2018/01/19,10:20,0.332,0.202,0.332,0.312,0.301,0.166,0.100,north-northwest,6.7,No
2018/01/19,10:30,0.333,0.203,0.332,0.315,0.302,0.166,0.100,north-northwest,7.3,No
2018/01/19,10:40,0.333,0.202,0.332,0.312,0.301,0.165,0.100,north-northwest,8.1,No
2018/01/19,10:50,0.332,0.202,0.333,0.314,0.301,0.166,0.099,northwest,6.7,No
2018/01/19,11:00,0.333,0.203,0.334,0.314,0.303,0.166,0.099,northwest,6.6,No
2018/01/19,11:10,0.333,0.202,0.334,0.313,0.304,0.166,0.100,north-northwest,5.5,No
2018/01/19,11:20,0.335,0.202,0.331,0.313,0.302,0.166,0.100,north-northwest,4.8,No
2018/01/19,11:30,0.333,0.202,0.334,0.315,0.301,0.166,0.100,north-northwest,3.9,No
2018/01/19,11:40,0.333,0.202,0.332,0.313,0.303,0.166,0.099,north-northwest,4.8,No
2018/01/19,11:50,0.333,0.202,0.333,0.312,0.302,0.166,0.100,north-northwest,6.4,No
2018/01/19,12:00,0.333,0.203,0.333,0.315,0.302,0.167,0.099,north,4.0,No
2018/01/19,12:10,0.332,0.202,0.333,0.313,0.303,0.166,0.099,north-northwest,4.4,No
2018/01/19,12:20,0.333,0.202,0.332,0.312,0.303,0.165,0.099,north-northwest,4.8,No
2018/01/19,12:30,0.333,0.202,0.333,0.315,0.304,0.166,0.099,north-northwest,4.3,No
2018/01/19,12:40,0.333,0.202,0.334,0.314,0.302,0.167,0.098,northwest,3.6,No
2018/01/19,12:50,0.333,0.202,0.331,0.313,0.302,0.166,0.099,northwest,3.9,No
2018/01/19,13:00,0.333,0.203,0.333,0.314,0.303,0.166,0.099,west-northwest,3.0,No
2018/01/19,13:10,0.333,0.203,0.334,0.314,0.302,0.166,0.098,northwest,3.0,No
2018/01/19,13:20,0.333,0.202,0.331,0.312,0.303,0.166,0.099,northwest,3.9,No
2018/01/19,13:30,0.333,0.202,0.333,0.314,0.304,0.167,0.099,north-northwest,2.6,No
2018/01/19,13:40,0.335,0.202,0.333,0.315,0.302,0.167,0.099,northwest,2.0,No
2018/01/19,13:50,0.335,0.202,0.333,0.312,0.302,0.167,0.099,north-northwest,4.4,No
2018/01/19,14:00,0.333,0.203,0.332,0.314,0.304,0.167,0.100,northwest,3.5,No
2018/01/19,14:10,0.335,0.203,0.333,0.313,0.303,0.166,0.099,north-northwest,2.6,No
2018/01/19,14:20,0.333,0.202,0.332,0.313,0.304,0.167,0.099,north-northwest,2.0,No
2018/01/19,14:30,0.332,0.202,0.333,0.316,0.301,0.166,0.100,northwest,2.7,No
2018/01/19,14:40,0.334,0.202,0.333,0.313,0.303,0.166,0.100,north-northwest,2.5,No
2018/01/19,14:50,0.334,0.201,0.333,0.313,0.302,0.165,0.099,north-northwest,3.5,No
2018/01/19,15:00,0.333,0.203,0.333,0.316,0.302,0.164,0.100,north,3.8,No
2018/01/19,15:10,0.334,0.202,0.334,0.314,0.304,0.166,0.099,west-northwest,1.8,No
2018/01/19,15:20,0.336,0.202,0.334,0.314,0.303,0.167,0.100,northwest,1.1,No
2018/01/19,15:30,0.334,0.202,0.334,0.315,0.302,0.165,0.099,west,0.8,No
2018/01/19,15:40,0.334,0.204,0.336,0.315,0.304,0.167,0.099,-,CALM,No
2018/01/19,15:50,0.334,0.203,0.335,0.314,0.303,0.166,0.100,north-northwest,0.9,No
2018/01/19,16:00,0.334,0.203,0.333,0.316,0.302,0.167,0.100,north-northeast,0.6,No
2018/01/19,16:10,0.334,0.203,0.334,0.315,0.303,0.166,0.099,east-northeast,0.6,No
2018/01/19,16:20,0.335,0.203,0.335,0.314,0.303,0.167,0.099,-,CALM,No
2018/01/19,16:30,0.334,0.203,0.333,0.313,0.302,0.167,0.100,north-northeast,1.0,No
2018/01/19,16:40,0.334,0.203,0.334,0.316,0.304,0.167,0.099,west-northwest,1.4,No
2018/01/19,16:50,0.334,0.202,0.334,0.314,0.304,0.166,0.100,northwest,1.7,No
2018/01/19,17:00,0.333,0.202,0.333,0.315,0.303,0.167,0.099,north,3.4,No
2018/01/19,17:10,0.336,0.202,0.334,0.316,0.301,0.167,0.099,north,3.5,No
2018/01/19,17:20,0.333,0.203,0.334,0.315,0.303,0.165,0.100,north,6.1,No
2018/01/19,17:30,0.336,0.203,0.334,0.315,0.302,0.167,0.100,north,5.7,No
2018/01/19,17:40,0.335,0.203,0.333,0.315,0.301,0.168,0.100,north,5.6,No
2018/01/19,17:50,0.335,0.202,0.333,0.315,0.303,0.167,0.101,north-northwest,4.1,No
2018/01/19,18:00,0.335,0.203,0.333,0.315,0.302,0.166,0.100,north-northwest,4.2,No
2018/01/19,18:10,0.333,0.203,0.335,0.315,0.302,0.166,0.100,north,3.9,No
2018/01/19,18:20,0.334,0.203,0.333,0.315,0.302,0.166,0.099,north,3.1,No
2018/01/19,18:30,0.335,0.202,0.334,0.315,0.302,0.166,0.099,north-northwest,2.7,No
2018/01/19,18:40,0.335,0.204,0.336,0.315,0.303,0.167,0.100,north-northwest,4.6,No
2018/01/19,18:50,0.335,0.204,0.334,0.314,0.302,0.167,0.099,north-northwest,3.8,No
2018/01/19,19:00,0.335,0.202,0.335,0.317,0.302,0.167,0.100,northwest,3.0,No
2018/01/19,19:10,0.334,0.203,0.334,0.315,0.301,0.167,0.099,northwest,3.8,No
2018/01/19,19:20,0.335,0.203,0.334,0.316,0.302,0.167,0.099,northwest,3.5,No
2018/01/19,19:30,0.334,0.203,0.335,0.314,0.302,0.167,0.100,northwest,2.6,No
2018/01/19,19:40,0.335,0.204,0.334,0.315,0.302,0.167,0.100,northwest,1.7,No
2018/01/19,19:50,0.334,0.202,0.335,0.315,0.301,0.167,0.100,north-northwest,3.4,No
2018/01/19,20:00,0.335,0.203,0.334,0.315,0.303,0.167,0.100,north,2.4,No
2018/01/19,20:10,0.336,0.203,0.333,0.315,0.301,0.166,0.101,north,4.2,No
2018/01/19,20:20,0.336,0.204,0.334,0.316,0.302,0.166,0.100,-,CALM,No
2018/01/19,20:30,0.335,0.203,0.335,0.315,0.302,0.168,0.100,northwest,1.8,No
2018/01/19,20:40,0.334,0.202,0.334,0.315,0.302,0.168,0.100,north-northwest,2.9,No
2018/01/19,20:50,0.335,0.204,0.333,0.315,0.304,0.167,0.100,north-northwest,2.4,No
2018/01/19,21:00,0.336,0.203,0.334,0.315,0.303,0.168,0.101,north-northwest,4.6,No
2018/01/19,21:10,0.335,0.203,0.333,0.314,0.301,0.167,0.101,north,2.6,No
2018/01/19,21:20,0.335,0.204,0.334,0.315,0.301,0.167,0.101,north,4.4,No
2018/01/19,21:30,0.334,0.202,0.333,0.315,0.303,0.166,0.101,north,2.0,No
2018/01/19,21:40,0.336,0.203,0.333,0.314,0.303,0.167,0.100,north-northwest,1.8,No
2018/01/19,21:50,0.336,0.202,0.335,0.314,0.302,0.167,0.101,north,4.3,No
2018/01/19,22:00,0.335,0.203,0.335,0.316,0.301,0.167,0.100,north,4.9,No
2018/01/19,22:10,0.334,0.203,0.336,0.316,0.302,0.167,0.100,north,4.1,No
2018/01/19,22:20,0.335,0.205,0.335,0.316,0.304,0.167,0.100,north-northwest,3.5,No
2018/01/19,22:30,0.336,0.202,0.335,0.315,0.302,0.167,0.100,north-northwest,3.1,No
2018/01/19,22:40,0.335,0.204,0.333,0.315,0.302,0.167,0.100,north-northwest,3.0,No
2018/01/19,22:50,0.335,0.203,0.335,0.316,0.301,0.166,0.101,north,4.3,No
2018/01/19,23:00,0.334,0.203,0.334,0.315,0.302,0.167,0.100,north,4.7,No
2018/01/19,23:10,0.336,0.203,0.334,0.316,0.303,0.167,0.100,north-northwest,4.6,No
2018/01/19,23:20,0.335,0.202,0.334,0.315,0.301,0.167,0.100,north,4.1,No
2018/01/19,23:30,0.335,0.204,0.334,0.315,0.302,0.167,0.100,north,3.9,No
2018/01/19,23:40,0.333,0.204,0.335,0.315,0.303,0.166,0.100,north,3.1,No
2018/01/19,23:50,0.334,0.204,0.335,0.316,0.302,0.167,0.101,north-northwest,3.0,No
